1/1/2016 5:12,42370.22,0,0
1/1/2016 6:12,42370.26,0.04,0
1/1/2016 7:12,42370.3,0.08,0
1/1/2016 8:12,42370.34,0.12,0
1/1/2016 9:12,42370.38,0.16,0
1/1/2016 10:12,42370.43,0.21,0
1/1/2016 11:12,42370.47,0.25,0
1/1/2016 12:12,42370.51,0.29,0
1/1/2016 13:12,42370.55,0.33,16.8
1/1/2016 14:12,42370.59,0.37,50.2
1/1/2016 15:12,42370.63,0.41,69.1
1/1/2016 16:12,42370.68,0.46,89.1
1/1/2016 17:12,42370.72,0.5,101
1/1/2016 18:12,42370.76,0.54,165
1/1/2016 19:12,42370.8,0.58,148
1/1/2016 20:12,42370.84,0.62,121
1/1/2016 21:12,42370.88,0.66,56.9
1/1/2016 22:12,42370.93,0.71,17.7
1/1/2016 23:12,42370.97,0.75,0
1/2/2016 0:12,42371.01,0.79,0
1/2/2016 1:12,42371.05,0.83,0
1/2/2016 2:12,42371.09,0.87,0
1/2/2016 3:12,42371.13,0.91,0
1/2/2016 4:12,42371.18,0.96,0
1/2/2016 5:12,42371.22,1,0
1/2/2016 6:12,42371.26,1.04,0
1/2/2016 7:12,42371.3,1.08,0
1/2/2016 8:12,42371.34,1.12,0
1/2/2016 9:12,42371.38,1.16,0
1/2/2016 10:12,42371.43,1.21,0
1/2/2016 11:12,42371.47,1.25,0
1/2/2016 12:12,42371.51,1.29,0
1/2/2016 13:12,42371.55,1.33,70
1/2/2016 14:12,42371.59,1.37,210
1/2/2016 15:12,42371.63,1.41,349
1/2/2016 16:12,42371.68,1.46,450
1/2/2016 17:12,42371.72,1.5,513
1/2/2016 18:12,42371.76,1.54,548
1/2/2016 19:12,42371.8,1.58,492
1/2/2016 20:12,42371.84,1.62,403
1/2/2016 21:12,42371.88,1.66,218
1/2/2016 22:12,42371.93,1.71,69.3
1/2/2016 23:12,42371.97,1.75,0
1/3/2016 0:12,42372.01,1.79,0
1/3/2016 1:12,42372.05,1.83,0
1/3/2016 2:12,42372.09,1.87,0
1/3/2016 3:12,42372.13,1.91,0
1/3/2016 4:12,42372.18,1.96,0
1/3/2016 5:12,42372.22,2,0
1/3/2016 6:12,42372.26,2.04,0
1/3/2016 7:12,42372.3,2.08,0
1/3/2016 8:12,42372.34,2.12,0
1/3/2016 9:12,42372.38,2.16,0
1/3/2016 10:12,42372.43,2.21,0
1/3/2016 11:12,42372.47,2.25,0
1/3/2016 12:12,42372.51,2.29,0
1/3/2016 13:12,42372.55,2.33,69.2
1/3/2016 14:12,42372.59,2.37,208
1/3/2016 15:12,42372.63,2.41,301
1/3/2016 16:12,42372.68,2.46,389
1/3/2016 17:12,42372.72,2.5,443
1/3/2016 18:12,42372.76,2.54,479
1/3/2016 19:12,42372.8,2.58,430
1/3/2016 20:12,42372.84,2.62,353
1/3/2016 21:12,42372.88,2.66,223
1/3/2016 22:12,42372.93,2.71,72.4
1/3/2016 23:12,42372.97,2.75,0
1/4/2016 0:12,42373.01,2.79,0
1/4/2016 1:12,42373.05,2.83,0
1/4/2016 2:12,42373.09,2.87,0
1/4/2016 3:12,42373.13,2.91,0
1/4/2016 4:12,42373.18,2.96,0
1/4/2016 5:12,42373.22,3,0
1/4/2016 6:12,42373.26,3.04,0
1/4/2016 7:12,42373.3,3.08,0
1/4/2016 8:12,42373.34,3.12,0
1/4/2016 9:12,42373.38,3.16,0
1/4/2016 10:12,42373.43,3.21,0
1/4/2016 11:12,42373.47,3.25,0
1/4/2016 12:12,42373.51,3.29,0
1/4/2016 13:12,42373.55,3.33,74.6
1/4/2016 14:12,42373.59,3.37,226
1/4/2016 15:12,42373.63,3.41,391
1/4/2016 16:12,42373.68,3.46,505
1/4/2016 17:12,42373.72,3.5,575
1/4/2016 18:12,42373.76,3.54,569
1/4/2016 19:12,42373.8,3.58,511
1/4/2016 20:12,42373.84,3.62,420
1/4/2016 21:12,42373.88,3.66,224
1/4/2016 22:12,42373.93,3.71,74
1/4/2016 23:12,42373.97,3.75,0
1/5/2016 0:12,42374.01,3.79,0
1/5/2016 1:12,42374.05,3.83,0
1/5/2016 2:12,42374.09,3.87,0
1/5/2016 3:12,42374.13,3.91,0
1/5/2016 4:12,42374.18,3.96,0
1/5/2016 5:12,42374.22,4,0
1/5/2016 6:12,42374.26,4.04,0
1/5/2016 7:12,42374.3,4.08,0
1/5/2016 8:12,42374.34,4.12,0
1/5/2016 9:12,42374.38,4.16,0
1/5/2016 10:12,42374.43,4.21,0
1/5/2016 11:12,42374.47,4.25,0
1/5/2016 12:12,42374.51,4.29,0
1/5/2016 13:12,42374.55,4.33,76.3
1/5/2016 14:12,42374.59,4.37,231
1/5/2016 15:12,42374.63,4.41,398
1/5/2016 16:12,42374.68,4.46,514
1/5/2016 17:12,42374.72,4.5,587
1/5/2016 18:12,42374.76,4.54,579
1/5/2016 19:12,42374.8,4.58,521
1/5/2016 20:12,42374.84,4.62,429
1/5/2016 21:12,42374.88,4.66,231
1/5/2016 22:12,42374.93,4.71,77.8
1/5/2016 23:12,42374.97,4.75,0
1/6/2016 0:12,42375.01,4.79,0
1/6/2016 1:12,42375.05,4.83,0
1/6/2016 2:12,42375.09,4.87,0
1/6/2016 3:12,42375.13,4.91,0
1/6/2016 4:12,42375.18,4.96,0
1/6/2016 5:12,42375.22,5,0
1/6/2016 6:12,42375.26,5.04,0
1/6/2016 7:12,42375.3,5.08,0
1/6/2016 8:12,42375.34,5.12,0
1/6/2016 9:12,42375.38,5.16,0
1/6/2016 10:12,42375.43,5.21,0
1/6/2016 11:12,42375.47,5.25,0
1/6/2016 12:12,42375.51,5.29,0
1/6/2016 13:12,42375.55,5.33,73.9
1/6/2016 14:12,42375.59,5.37,225
1/6/2016 15:12,42375.63,5.41,371
1/6/2016 16:12,42375.68,5.46,479
1/6/2016 17:12,42375.72,5.5,547
1/6/2016 18:12,42375.76,5.54,524
1/6/2016 19:12,42375.8,5.58,472
1/6/2016 20:12,42375.84,5.62,389
1/6/2016 21:12,42375.88,5.66,210
1/6/2016 22:12,42375.93,5.71,72.1
1/6/2016 23:12,42375.97,5.75,0
1/7/2016 0:12,42376.01,5.79,0
1/7/2016 1:12,42376.05,5.83,0
1/7/2016 2:12,42376.09,5.87,0
1/7/2016 3:12,42376.13,5.91,0
1/7/2016 4:12,42376.18,5.96,0
1/7/2016 5:12,42376.22,6,0
1/7/2016 6:12,42376.26,6.04,0
1/7/2016 7:12,42376.3,6.08,0
1/7/2016 8:12,42376.34,6.12,0
1/7/2016 9:12,42376.38,6.16,0
1/7/2016 10:12,42376.43,6.21,0
1/7/2016 11:12,42376.47,6.25,0
1/7/2016 12:12,42376.51,6.29,0
1/7/2016 13:12,42376.55,6.33,28.1
1/7/2016 14:12,42376.59,6.37,85.5
1/7/2016 15:12,42376.63,6.41,171
1/7/2016 16:12,42376.68,6.46,221
1/7/2016 17:12,42376.72,6.5,252
1/7/2016 18:12,42376.76,6.54,368
1/7/2016 19:12,42376.8,6.58,332
1/7/2016 20:12,42376.84,6.62,274
1/7/2016 21:12,42376.88,6.66,168
1/7/2016 22:12,42376.93,6.71,58.9
1/7/2016 23:12,42376.97,6.75,0
1/8/2016 0:12,42377.01,6.79,0
1/8/2016 1:12,42377.05,6.83,0
1/8/2016 2:12,42377.09,6.87,0
1/8/2016 3:12,42377.13,6.91,0
1/8/2016 4:12,42377.18,6.96,0
1/8/2016 5:12,42377.22,7,0
1/8/2016 6:12,42377.26,7.04,0
1/8/2016 7:12,42377.3,7.08,0
1/8/2016 8:12,42377.34,7.12,0
1/8/2016 9:12,42377.38,7.16,0
1/8/2016 10:12,42377.43,7.21,0
1/8/2016 11:12,42377.47,7.25,0
1/8/2016 12:12,42377.51,7.29,0
1/8/2016 13:12,42377.55,7.33,29.6
1/8/2016 14:12,42377.59,7.37,90.2
1/8/2016 15:12,42377.63,7.41,180
1/8/2016 16:12,42377.68,7.46,233
1/8/2016 17:12,42377.72,7.5,266
1/8/2016 18:12,42377.76,7.54,242
1/8/2016 19:12,42377.8,7.58,219
1/8/2016 20:12,42377.84,7.62,181
1/8/2016 21:12,42377.88,7.66,104
1/8/2016 22:12,42377.93,7.71,37.1
1/8/2016 23:12,42377.97,7.75,0
1/9/2016 0:12,42378.01,7.79,0
1/9/2016 1:12,42378.05,7.83,0
1/9/2016 2:12,42378.09,7.87,0
1/9/2016 3:12,42378.13,7.91,0
1/9/2016 4:12,42378.18,7.96,0
1/9/2016 5:12,42378.22,8,0
1/9/2016 6:12,42378.26,8.04,0
1/9/2016 7:12,42378.3,8.08,0
1/9/2016 8:12,42378.34,8.12,0
1/9/2016 9:12,42378.38,8.16,0
1/9/2016 10:12,42378.43,8.21,0
1/9/2016 11:12,42378.47,8.25,0
1/9/2016 12:12,42378.51,8.29,0
1/9/2016 13:12,42378.55,8.33,46.8
1/9/2016 14:12,42378.59,8.37,143
1/9/2016 15:12,42378.63,8.41,208
1/9/2016 16:12,42378.68,8.46,269
1/9/2016 17:12,42378.72,8.5,308
1/9/2016 18:12,42378.76,8.54,395
1/9/2016 19:12,42378.8,8.58,357
1/9/2016 20:12,42378.84,8.62,296
1/9/2016 21:12,42378.88,8.66,188
1/9/2016 22:12,42378.93,8.71,68.2
1/9/2016 23:12,42378.97,8.75,0
1/10/2016 0:12,42379.01,8.79,0
1/10/2016 1:12,42379.05,8.83,0
1/10/2016 2:12,42379.09,8.87,0
1/10/2016 3:12,42379.13,8.91,0
1/10/2016 4:12,42379.18,8.96,0
1/10/2016 5:12,42379.22,9,0
1/10/2016 6:12,42379.26,9.04,0
1/10/2016 7:12,42379.3,9.08,0
1/10/2016 8:12,42379.34,9.12,0
1/10/2016 9:12,42379.38,9.16,0
1/10/2016 10:12,42379.43,9.21,0
1/10/2016 11:12,42379.47,9.25,0
1/10/2016 12:12,42379.51,9.29,0
1/10/2016 13:12,42379.55,9.33,73.2
1/10/2016 14:12,42379.59,9.37,223
1/10/2016 15:12,42379.63,9.41,373
1/10/2016 16:12,42379.68,9.46,484
1/10/2016 17:12,42379.72,9.5,553
1/10/2016 18:12,42379.76,9.54,529
1/10/2016 19:12,42379.8,9.58,478
1/10/2016 20:12,42379.84,9.62,397
1/10/2016 21:12,42379.88,9.66,204
1/10/2016 22:12,42379.93,9.71,75
1/10/2016 23:12,42379.97,9.75,0
1/11/2016 0:12,42380.01,9.79,0
1/11/2016 1:12,42380.05,9.83,0
1/11/2016 2:12,42380.09,9.87,0
1/11/2016 3:12,42380.13,9.91,0
1/11/2016 4:12,42380.18,9.96,0
1/11/2016 5:12,42380.22,10,0
1/11/2016 6:12,42380.26,10.04,0
1/11/2016 7:12,42380.3,10.08,0
1/11/2016 8:12,42380.34,10.12,0
1/11/2016 9:12,42380.38,10.16,0
1/11/2016 10:12,42380.43,10.21,0
1/11/2016 11:12,42380.47,10.25,0
1/11/2016 12:12,42380.51,10.29,0
1/11/2016 13:12,42380.55,10.33,77.9
1/11/2016 14:12,42380.59,10.37,237
1/11/2016 15:12,42380.63,10.41,398
1/11/2016 16:12,42380.68,10.46,515
1/11/2016 17:12,42380.72,10.5,590
1/11/2016 18:12,42380.76,10.54,592
1/11/2016 19:12,42380.8,10.58,536
1/11/2016 20:12,42380.84,10.62,446
1/11/2016 21:12,42380.88,10.66,249
1/11/2016 22:12,42380.93,10.71,93.6
1/11/2016 23:12,42380.97,10.75,0
1/12/2016 0:12,42381.01,10.79,0
1/12/2016 1:12,42381.05,10.83,0
1/12/2016 2:12,42381.09,10.87,0
1/12/2016 3:12,42381.13,10.91,0
1/12/2016 4:12,42381.18,10.96,0
1/12/2016 5:12,42381.22,11,0
1/12/2016 6:12,42381.26,11.04,0
1/12/2016 7:12,42381.3,11.08,0
1/12/2016 8:12,42381.34,11.12,0
1/12/2016 9:12,42381.38,11.16,0
1/12/2016 10:12,42381.43,11.21,0
1/12/2016 11:12,42381.47,11.25,0
1/12/2016 12:12,42381.51,11.29,0
1/12/2016 13:12,42381.55,11.33,77.6
1/12/2016 14:12,42381.59,11.37,236
1/12/2016 15:12,42381.63,11.41,400
1/12/2016 16:12,42381.68,11.46,518
1/12/2016 17:12,42381.72,11.5,593
1/12/2016 18:12,42381.76,11.54,587
1/12/2016 19:12,42381.8,11.58,532
1/12/2016 20:12,42381.84,11.62,443
1/12/2016 21:12,42381.88,11.66,247
1/12/2016 22:12,42381.93,11.71,94.2
1/12/2016 23:12,42381.97,11.75,0
1/13/2016 0:12,42382.01,11.79,0
1/13/2016 1:12,42382.05,11.83,0
1/13/2016 2:12,42382.09,11.87,0
1/13/2016 3:12,42382.13,11.91,0
1/13/2016 4:12,42382.18,11.96,0
1/13/2016 5:12,42382.22,12,0
1/13/2016 6:12,42382.26,12.04,0
1/13/2016 7:12,42382.3,12.08,0
1/13/2016 8:12,42382.34,12.12,0
1/13/2016 9:12,42382.38,12.16,0
1/13/2016 10:12,42382.43,12.21,0
1/13/2016 11:12,42382.47,12.25,0
1/13/2016 12:12,42382.51,12.29,0
1/13/2016 13:12,42382.55,12.33,77
1/13/2016 14:12,42382.59,12.37,233
1/13/2016 15:12,42382.63,12.41,400
1/13/2016 16:12,42382.68,12.46,518
1/13/2016 17:12,42382.72,12.5,594
1/13/2016 18:12,42382.76,12.54,590
1/13/2016 19:12,42382.8,12.58,535
1/13/2016 20:12,42382.84,12.62,446
1/13/2016 21:12,42382.88,12.66,251
1/13/2016 22:12,42382.93,12.71,97.4
1/13/2016 23:12,42382.97,12.75,0
1/14/2016 0:12,42383.01,12.79,0
1/14/2016 1:12,42383.05,12.83,0
1/14/2016 2:12,42383.09,12.87,0
1/14/2016 3:12,42383.13,12.91,0
1/14/2016 4:12,42383.18,12.96,0
1/14/2016 5:12,42383.22,13,0
1/14/2016 6:12,42383.26,13.04,0
1/14/2016 7:12,42383.3,13.08,0
1/14/2016 8:12,42383.34,13.12,0
1/14/2016 9:12,42383.38,13.16,0
1/14/2016 10:12,42383.43,13.21,0
1/14/2016 11:12,42383.47,13.25,0
1/14/2016 12:12,42383.51,13.29,0
1/14/2016 13:12,42383.55,13.33,78.1
1/14/2016 14:12,42383.59,13.37,236
1/14/2016 15:12,42383.63,13.41,400
1/14/2016 16:12,42383.68,13.46,518
1/14/2016 17:12,42383.72,13.5,593
1/14/2016 18:12,42383.76,13.54,591
1/14/2016 19:12,42383.8,13.58,536
1/14/2016 20:12,42383.84,13.62,448
1/14/2016 21:12,42383.88,13.66,259
1/14/2016 22:12,42383.93,13.71,102
1/14/2016 23:12,42383.97,13.75,0
1/15/2016 0:12,42384.01,13.79,0
1/15/2016 1:12,42384.05,13.83,0
1/15/2016 2:12,42384.09,13.87,0
1/15/2016 3:12,42384.13,13.91,0
1/15/2016 4:12,42384.18,13.96,0
1/15/2016 5:12,42384.22,14,0
1/15/2016 6:12,42384.26,14.04,0
1/15/2016 7:12,42384.3,14.08,0
1/15/2016 8:12,42384.34,14.12,0
1/15/2016 9:12,42384.38,14.16,0
1/15/2016 10:12,42384.43,14.21,0
1/15/2016 11:12,42384.47,14.25,0
1/15/2016 12:12,42384.51,14.29,0
1/15/2016 13:12,42384.55,14.33,36.9
1/15/2016 14:12,42384.59,14.37,111
1/15/2016 15:12,42384.63,14.41,148
1/15/2016 16:12,42384.68,14.46,192
1/15/2016 17:12,42384.72,14.5,220
1/15/2016 18:12,42384.76,14.54,240
1/15/2016 19:12,42384.8,14.58,218
1/15/2016 20:12,42384.84,14.62,182
1/15/2016 21:12,42384.88,14.66,165
1/15/2016 22:12,42384.93,14.71,66
1/15/2016 23:12,42384.97,14.75,0
1/16/2016 0:12,42385.01,14.79,0
1/16/2016 1:12,42385.05,14.83,0
1/16/2016 2:12,42385.09,14.87,0
1/16/2016 3:12,42385.13,14.91,0
1/16/2016 4:12,42385.18,14.96,0
1/16/2016 5:12,42385.22,15,0
1/16/2016 6:12,42385.26,15.04,0
1/16/2016 7:12,42385.3,15.08,0
1/16/2016 8:12,42385.34,15.12,0
1/16/2016 9:12,42385.38,15.16,0
1/16/2016 10:12,42385.43,15.21,0
1/16/2016 11:12,42385.47,15.25,0
1/16/2016 12:12,42385.51,15.29,0
1/16/2016 13:12,42385.55,15.33,75.9
1/16/2016 14:12,42385.59,15.37,227
1/16/2016 15:12,42385.63,15.41,392
1/16/2016 16:12,42385.68,15.46,507
1/16/2016 17:12,42385.72,15.5,581
1/16/2016 18:12,42385.76,15.54,572
1/16/2016 19:12,42385.8,15.58,520
1/16/2016 20:12,42385.84,15.62,436
1/16/2016 21:12,42385.88,15.66,255
1/16/2016 22:12,42385.93,15.71,104
1/16/2016 23:12,42385.97,15.75,0
1/17/2016 0:12,42386.01,15.79,0
1/17/2016 1:12,42386.05,15.83,0
1/17/2016 2:12,42386.09,15.87,0
1/17/2016 3:12,42386.13,15.91,0
1/17/2016 4:12,42386.18,15.96,0
1/17/2016 5:12,42386.22,16,0
1/17/2016 6:12,42386.26,16.04,0
1/17/2016 7:12,42386.3,16.08,0
1/17/2016 8:12,42386.34,16.12,0
1/17/2016 9:12,42386.38,16.16,0
1/17/2016 10:12,42386.43,16.21,0
1/17/2016 11:12,42386.47,16.25,0
1/17/2016 12:12,42386.51,16.29,0
1/17/2016 13:12,42386.55,16.33,17.7
1/17/2016 14:12,42386.59,16.37,52.6
1/17/2016 15:12,42386.63,16.41,296
1/17/2016 16:12,42386.68,16.46,383
1/17/2016 17:12,42386.72,16.5,439
1/17/2016 18:12,42386.76,16.54,582
1/17/2016 19:12,42386.8,16.58,530
1/17/2016 20:12,42386.84,16.62,445
1/17/2016 21:12,42386.88,16.66,251
1/17/2016 22:12,42386.93,16.71,103
1/17/2016 23:12,42386.97,16.75,0
1/18/2016 0:12,42387.01,16.79,0
1/18/2016 1:12,42387.05,16.83,0
1/18/2016 2:12,42387.09,16.87,0
1/18/2016 3:12,42387.13,16.91,0
1/18/2016 4:12,42387.18,16.96,0
1/18/2016 5:12,42387.22,17,0
1/18/2016 6:12,42387.26,17.04,0
1/18/2016 7:12,42387.3,17.08,0
1/18/2016 8:12,42387.34,17.12,0
1/18/2016 9:12,42387.38,17.16,0
1/18/2016 10:12,42387.43,17.21,0
1/18/2016 11:12,42387.47,17.25,0
1/18/2016 12:12,42387.51,17.29,0
1/18/2016 13:12,42387.55,17.33,79.7
1/18/2016 14:12,42387.59,17.37,236
1/18/2016 15:12,42387.63,17.41,402
1/18/2016 16:12,42387.68,17.46,521
1/18/2016 17:12,42387.72,17.5,597
1/18/2016 18:12,42387.76,17.54,585
1/18/2016 19:12,42387.8,17.58,532
1/18/2016 20:12,42387.84,17.62,448
1/18/2016 21:12,42387.88,17.66,267
1/18/2016 22:12,42387.93,17.71,112
1/18/2016 23:12,42387.97,17.75,0
1/19/2016 0:12,42388.01,17.79,0
1/19/2016 1:12,42388.05,17.83,0
1/19/2016 2:12,42388.09,17.87,0
1/19/2016 3:12,42388.13,17.91,0
1/19/2016 4:12,42388.18,17.96,0
1/19/2016 5:12,42388.22,18,0
1/19/2016 6:12,42388.26,18.04,0
1/19/2016 7:12,42388.3,18.08,0
1/19/2016 8:12,42388.34,18.12,0
1/19/2016 9:12,42388.38,18.16,0
1/19/2016 10:12,42388.43,18.21,0
1/19/2016 11:12,42388.47,18.25,0
1/19/2016 12:12,42388.51,18.29,0
1/19/2016 13:12,42388.55,18.33,83.8
1/19/2016 14:12,42388.59,18.37,246
1/19/2016 15:12,42388.63,18.41,415
1/19/2016 16:12,42388.68,18.46,538
1/19/2016 17:12,42388.72,18.5,617
1/19/2016 18:12,42388.76,18.54,610
1/19/2016 19:12,42388.8,18.58,556
1/19/2016 20:12,42388.84,18.62,469
1/19/2016 21:12,42388.88,18.66,272
1/19/2016 22:12,42388.93,18.71,116
1/19/2016 23:12,42388.97,18.75,0
1/20/2016 0:12,42389.01,18.79,0
1/20/2016 1:12,42389.05,18.83,0
1/20/2016 2:12,42389.09,18.87,0
1/20/2016 3:12,42389.13,18.91,0
1/20/2016 4:12,42389.18,18.96,0
1/20/2016 5:12,42389.22,19,0
1/20/2016 6:12,42389.26,19.04,0
1/20/2016 7:12,42389.3,19.08,0
1/20/2016 8:12,42389.34,19.12,0
1/20/2016 9:12,42389.38,19.16,0
1/20/2016 10:12,42389.43,19.21,0
1/20/2016 11:12,42389.47,19.25,0
1/20/2016 12:12,42389.51,19.29,0
1/20/2016 13:12,42389.55,19.33,75.4
1/20/2016 14:12,42389.59,19.37,220
1/20/2016 15:12,42389.63,19.41,389
1/20/2016 16:12,42389.68,19.46,504
1/20/2016 17:12,42389.72,19.5,578
1/20/2016 18:12,42389.76,19.54,578
1/20/2016 19:12,42389.8,19.58,527
1/20/2016 20:12,42389.84,19.62,445
1/20/2016 21:12,42389.88,19.66,253
1/20/2016 22:12,42389.93,19.71,109
1/20/2016 23:12,42389.97,19.75,0
1/21/2016 0:12,42390.01,19.79,0
1/21/2016 1:12,42390.05,19.83,0
1/21/2016 2:12,42390.09,19.87,0
1/21/2016 3:12,42390.13,19.91,0
1/21/2016 4:12,42390.18,19.96,0
1/21/2016 5:12,42390.22,20,0
1/21/2016 6:12,42390.26,20.04,0
1/21/2016 7:12,42390.3,20.08,0
1/21/2016 8:12,42390.34,20.12,0
1/21/2016 9:12,42390.38,20.16,0
1/21/2016 10:12,42390.43,20.21,0
1/21/2016 11:12,42390.47,20.25,0
1/21/2016 12:12,42390.51,20.29,0
1/21/2016 13:12,42390.55,20.33,40.7
1/21/2016 14:12,42390.59,20.37,118
1/21/2016 15:12,42390.63,20.41,155
1/21/2016 16:12,42390.68,20.46,201
1/21/2016 17:12,42390.72,20.5,230
1/21/2016 18:12,42390.76,20.54,229
1/21/2016 19:12,42390.8,20.58,209
1/21/2016 20:12,42390.84,20.62,177
1/21/2016 21:12,42390.88,20.66,179
1/21/2016 22:12,42390.93,20.71,78.1
1/21/2016 23:12,42390.97,20.75,0
1/22/2016 0:12,42391.01,20.79,0
1/22/2016 1:12,42391.05,20.83,0
1/22/2016 2:12,42391.09,20.87,0
1/22/2016 3:12,42391.13,20.91,0
1/22/2016 4:12,42391.18,20.96,0
1/22/2016 5:12,42391.22,21,0
1/22/2016 6:12,42391.26,21.04,0
1/22/2016 7:12,42391.3,21.08,0
1/22/2016 8:12,42391.34,21.12,0
1/22/2016 9:12,42391.38,21.16,0
1/22/2016 10:12,42391.43,21.21,0
1/22/2016 11:12,42391.47,21.25,0
1/22/2016 12:12,42391.51,21.29,0
1/22/2016 13:12,42391.55,21.33,28.7
1/22/2016 14:12,42391.59,21.37,82.4
1/22/2016 15:12,42391.63,21.41,141
1/22/2016 16:12,42391.68,21.46,182
1/22/2016 17:12,42391.72,21.5,209
1/22/2016 18:12,42391.76,21.54,152
1/22/2016 19:12,42391.8,21.58,138
1/22/2016 20:12,42391.84,21.62,117
1/22/2016 21:12,42391.88,21.66,171
1/22/2016 22:12,42391.93,21.71,75.8
1/22/2016 23:12,42391.97,21.75,0
1/23/2016 0:12,42392.01,21.79,0
1/23/2016 1:12,42392.05,21.83,0
1/23/2016 2:12,42392.09,21.87,0
1/23/2016 3:12,42392.13,21.91,0
1/23/2016 4:12,42392.18,21.96,0
1/23/2016 5:12,42392.22,22,0
1/23/2016 6:12,42392.26,22.04,0
1/23/2016 7:12,42392.3,22.08,0
1/23/2016 8:12,42392.34,22.12,0
1/23/2016 9:12,42392.38,22.16,0
1/23/2016 10:12,42392.43,22.21,0
1/23/2016 11:12,42392.47,22.25,0
1/23/2016 12:12,42392.51,22.29,0
1/23/2016 13:12,42392.55,22.33,24.3
1/23/2016 14:12,42392.59,22.37,69
1/23/2016 15:12,42392.63,22.41,139
1/23/2016 16:12,42392.68,22.46,180
1/23/2016 17:12,42392.72,22.5,206
1/23/2016 18:12,42392.76,22.54,364
1/23/2016 19:12,42392.8,22.58,333
1/23/2016 20:12,42392.84,22.62,282
1/23/2016 21:12,42392.88,22.66,194
1/23/2016 22:12,42392.93,22.71,86.9
1/23/2016 23:12,42392.97,22.75,0
1/24/2016 0:12,42393.01,22.79,0
1/24/2016 1:12,42393.05,22.83,0
1/24/2016 2:12,42393.09,22.87,0
1/24/2016 3:12,42393.13,22.91,0
1/24/2016 4:12,42393.18,22.96,0
1/24/2016 5:12,42393.22,23,0
1/24/2016 6:12,42393.26,23.04,0
1/24/2016 7:12,42393.3,23.08,0
1/24/2016 8:12,42393.34,23.12,0
1/24/2016 9:12,42393.38,23.16,0
1/24/2016 10:12,42393.43,23.21,0
1/24/2016 11:12,42393.47,23.25,0
1/24/2016 12:12,42393.51,23.29,0
1/24/2016 13:12,42393.55,23.33,87.4
1/24/2016 14:12,42393.59,23.37,247
1/24/2016 15:12,42393.63,23.41,418
1/24/2016 16:12,42393.68,23.46,540
1/24/2016 17:12,42393.72,23.5,620
1/24/2016 18:12,42393.76,23.54,621
1/24/2016 19:12,42393.8,23.58,568
1/24/2016 20:12,42393.84,23.62,482
1/24/2016 21:12,42393.88,23.66,289
1/24/2016 22:12,42393.93,23.71,131
1/24/2016 23:12,42393.97,23.75,0
1/25/2016 0:12,42394.01,23.79,0
1/25/2016 1:12,42394.05,23.83,0
1/25/2016 2:12,42394.09,23.87,0
1/25/2016 3:12,42394.13,23.91,0
1/25/2016 4:12,42394.18,23.96,0
1/25/2016 5:12,42394.22,24,0
1/25/2016 6:12,42394.26,24.04,0
1/25/2016 7:12,42394.3,24.08,0
1/25/2016 8:12,42394.34,24.12,0
1/25/2016 9:12,42394.38,24.16,0
1/25/2016 10:12,42394.43,24.21,0
1/25/2016 11:12,42394.47,24.25,0
1/25/2016 12:12,42394.51,24.29,0
1/25/2016 13:12,42394.55,24.33,89.7
1/25/2016 14:12,42394.59,24.37,251
1/25/2016 15:12,42394.63,24.41,417
1/25/2016 16:12,42394.68,24.46,539
1/25/2016 17:12,42394.72,24.5,619
1/25/2016 18:12,42394.76,24.54,609
1/25/2016 19:12,42394.8,24.58,558
1/25/2016 20:12,42394.84,24.62,474
1/25/2016 21:12,42394.88,24.66,291
1/25/2016 22:12,42394.93,24.71,134
1/25/2016 23:12,42394.97,24.75,0
1/26/2016 0:12,42395.01,24.79,0
1/26/2016 1:12,42395.05,24.83,0
1/26/2016 2:12,42395.09,24.87,0
1/26/2016 3:12,42395.13,24.91,0
1/26/2016 4:12,42395.18,24.96,0
1/26/2016 5:12,42395.22,25,0
1/26/2016 6:12,42395.26,25.04,0
1/26/2016 7:12,42395.3,25.08,0
1/26/2016 8:12,42395.34,25.12,0
1/26/2016 9:12,42395.38,25.16,0
1/26/2016 10:12,42395.43,25.21,0
1/26/2016 11:12,42395.47,25.25,0
1/26/2016 12:12,42395.51,25.29,0
1/26/2016 13:12,42395.55,25.33,88
1/26/2016 14:12,42395.59,25.37,244
1/26/2016 15:12,42395.63,25.41,380
1/26/2016 16:12,42395.68,25.46,492
1/26/2016 17:12,42395.72,25.5,564
1/26/2016 18:12,42395.76,25.54,559
1/26/2016 19:12,42395.8,25.58,513
1/26/2016 20:12,42395.84,25.62,436
1/26/2016 21:12,42395.88,25.66,279
1/26/2016 22:12,42395.93,25.71,130
1/26/2016 23:12,42395.97,25.75,0
1/27/2016 0:12,42396.01,25.79,0
1/27/2016 1:12,42396.05,25.83,0
1/27/2016 2:12,42396.09,25.87,0
1/27/2016 3:12,42396.13,25.91,0
1/27/2016 4:12,42396.18,25.96,0
1/27/2016 5:12,42396.22,26,0
1/27/2016 6:12,42396.26,26.04,0
1/27/2016 7:12,42396.3,26.08,0
1/27/2016 8:12,42396.34,26.12,0
1/27/2016 9:12,42396.38,26.16,0
1/27/2016 10:12,42396.43,26.21,0
1/27/2016 11:12,42396.47,26.25,0
1/27/2016 12:12,42396.51,26.29,0
1/27/2016 13:12,42396.55,26.33,77.7
1/27/2016 14:12,42396.59,26.37,213
1/27/2016 15:12,42396.63,26.41,244
1/27/2016 16:12,42396.68,26.46,315
1/27/2016 17:12,42396.72,26.5,361
1/27/2016 18:12,42396.76,26.54,311
1/27/2016 19:12,42396.8,26.58,285
1/27/2016 20:12,42396.84,26.62,243
1/27/2016 21:12,42396.88,26.66,75.5
1/27/2016 22:12,42396.93,26.71,35.5
1/27/2016 23:12,42396.97,26.75,0
1/28/2016 0:12,42397.01,26.79,0
1/28/2016 1:12,42397.05,26.83,0
1/28/2016 2:12,42397.09,26.87,0
1/28/2016 3:12,42397.13,26.91,0
1/28/2016 4:12,42397.18,26.96,0
1/28/2016 5:12,42397.22,27,0
1/28/2016 6:12,42397.26,27.04,0
1/28/2016 7:12,42397.3,27.08,0
1/28/2016 8:12,42397.34,27.12,0
1/28/2016 9:12,42397.38,27.16,0
1/28/2016 10:12,42397.43,27.21,0
1/28/2016 11:12,42397.47,27.25,0
1/28/2016 12:12,42397.51,27.29,0
1/28/2016 13:12,42397.55,27.33,19.8
1/28/2016 14:12,42397.59,27.37,53.6
1/28/2016 15:12,42397.63,27.41,98.5
1/28/2016 16:12,42397.68,27.46,127
1/28/2016 17:12,42397.72,27.5,146
1/28/2016 18:12,42397.76,27.54,141
1/28/2016 19:12,42397.8,27.58,129
1/28/2016 20:12,42397.84,27.62,110
1/28/2016 21:12,42397.88,27.66,85.4
1/28/2016 22:12,42397.93,27.71,40.6
1/28/2016 23:12,42397.97,27.75,0
1/29/2016 0:12,42398.01,27.79,0
1/29/2016 1:12,42398.05,27.83,0
1/29/2016 2:12,42398.09,27.87,0
1/29/2016 3:12,42398.13,27.91,0
1/29/2016 4:12,42398.18,27.96,0
1/29/2016 5:12,42398.22,28,0
1/29/2016 6:12,42398.26,28.04,0
1/29/2016 7:12,42398.3,28.08,0
1/29/2016 8:12,42398.34,28.12,0
1/29/2016 9:12,42398.38,28.16,0
1/29/2016 10:12,42398.43,28.21,0
1/29/2016 11:12,42398.47,28.25,0
1/29/2016 12:12,42398.51,28.29,0
1/29/2016 13:12,42398.55,28.33,96.3
1/29/2016 14:12,42398.59,28.37,258
1/29/2016 15:12,42398.63,28.41,430
1/29/2016 16:12,42398.68,28.46,555
1/29/2016 17:12,42398.72,28.5,636
1/29/2016 18:12,42398.76,28.54,640
1/29/2016 19:12,42398.8,28.58,588
1/29/2016 20:12,42398.84,28.62,502
1/29/2016 21:12,42398.88,28.66,306
1/29/2016 22:12,42398.93,28.71,147
1/29/2016 23:12,42398.97,28.75,0
1/30/2016 0:12,42399.01,28.79,0
1/30/2016 1:12,42399.05,28.83,0
1/30/2016 2:12,42399.09,28.87,0
1/30/2016 3:12,42399.13,28.91,0
1/30/2016 4:12,42399.18,28.96,0
1/30/2016 5:12,42399.22,29,0
1/30/2016 6:12,42399.26,29.04,0
1/30/2016 7:12,42399.3,29.08,0
1/30/2016 8:12,42399.34,29.12,0
1/30/2016 9:12,42399.38,29.16,0
1/30/2016 10:12,42399.43,29.21,0
1/30/2016 11:12,42399.47,29.25,0
1/30/2016 12:12,42399.51,29.29,0
1/30/2016 13:12,42399.55,29.33,97.3
1/30/2016 14:12,42399.59,29.37,258
1/30/2016 15:12,42399.63,29.41,412
1/30/2016 16:12,42399.68,29.46,531
1/30/2016 17:12,42399.72,29.5,609
1/30/2016 18:12,42399.76,29.54,627
1/30/2016 19:12,42399.8,29.58,576
1/30/2016 20:12,42399.84,29.62,493
1/30/2016 21:12,42399.88,29.66,306
1/30/2016 22:12,42399.93,29.71,149